This is the latest recevied weather packets stored in our database for station/object W4TTU-1. If no packets are shown the sender has not sent any weather packets the latest 10 day(s).
| Time | Temp. | Humidity | Pressure | Rain* | Wind** | Luminosity | Snow |
|---|---|---|---|---|---|---|---|
| 1777591758 | 27.78° C | 32% | 849.3 hPa | 0 mm | - | - | - |
| 1777590858 | 27.22° C | 33% | 849.3 hPa | 0 mm | - | - | - |
| 1777589055 | 25.56° C | 33% | 849.4 hPa | 0 mm | - | - | - |
| 1777587254 | 23.89° C | 34% | 849.5 hPa | 0 mm | - | - | - |
| 1777586360 | 23.89° C | 34% | 849.7 hPa | 0 mm | - | - | - |
| 1777584553 | 23.89° C | 35% | 850 hPa | 0 mm | - | - | - |
| 1777583652 | 22.78° C | 36% | 850 hPa | 0 mm | - | - | - |
| 1777582752 | 22.22° C | 37% | 850.2 hPa | 0 mm | - | - | - |
| 1777581851 | 21.67° C | 37% | 850.3 hPa | 0 mm | - | - | - |
| 1777580950 | 20.56° C | 37% | 850.4 hPa | 0 mm | - | - | - |
| 1777580050 | 20° C | 37% | 850.6 hPa | 0 mm | - | - | - |
| 1777579149 | 19.44° C | 38% | 850.6 hPa | 0 mm | - | - | - |
| 1777578249 | 18.89° C | 38% | 850.7 hPa | 0 mm | - | - | - |
| 1777577348 | 17.78° C | 39% | 850.9 hPa | 0 mm | - | - | - |
| 1777576448 | 17.78° C | 39% | 851 hPa | 0 mm | - | - | - |
| 1777575547 | 17.78° C | 39% | 851.1 hPa | 0 mm | - | - | - |
| 1777574651 | 17.78° C | 40% | 851.3 hPa | 0 mm | - | - | - |
| 1777573746 | 17.78° C | 41% | 851.3 hPa | 0 mm | - | - | - |
| 1777572846 | 17.22° C | 41% | 851.4 hPa | 0 mm | - | - | - |
| 1777571945 | 17.22° C | 43% | 851.4 hPa | 0 mm | - | - | - |
| 1777571049 | 16.11° C | 44% | 851.4 hPa | 0 mm | - | - | - |
| 1777570144 | 15.56° C | 46% | 851.5 hPa | 0 mm | - | - | - |
| 1777569244 | 14.44° C | 47% | 851.7 hPa | 0 mm | - | - | - |
| 1777568343 | 13.33° C | 48% | 851.8 hPa | 0 mm | - | - | - |
| 1777566542 | 11.67° C | 51% | 851.8 hPa | 0 mm | - | - | - |
* Rain since midnight (hover to see other rain measurements)
** Current wind speed in m/s (hover to see current wind gust speed)